This is the latest recevied weather packets stored in our database for station/object DO9LL-1. If no packets are shown the sender has not sent any weather packets the latest 1 day(s).
| Time | Temp. | Humidity | Pressure | Rain* | Wind** | Luminosity | Snow |
|---|---|---|---|---|---|---|---|
| 1778104347 | 8.33° C | 86% | 1010.3 hPa | 0 mm | - | - | - |
| 1778103744 | 8.33° C | 87% | 1010.2 hPa | 0 mm | - | - | - |
| 1778101954 | 7.78° C | 90% | 1010.1 hPa | 0 mm | - | - | - |
| 1778101351 | 7.78° C | 89% | 1010.2 hPa | 0 mm | - | - | - |
| 1778095339 | 8.33° C | 88% | 1009.5 hPa | 0 mm | - | - | - |
| 1778091156 | 8.89° C | 89% | 1008.8 hPa | 0 mm | - | - | - |
| 1778090552 | 8.89° C | 89% | 1008.7 hPa | 0 mm | - | - | - |
| 1778089949 | 8.33° C | 89% | 1008.6 hPa | 0 mm | - | - | - |
| 1778089346 | 8.89° C | 88% | 1008.5 hPa | 0 mm | - | - | - |
| 1778088742 | 8.33° C | 88% | 1008.5 hPa | 0 mm | - | - | - |
| 1778086952 | 8.33° C | 90% | 1008.4 hPa | 0 mm | - | - | - |
| 1778083352 | 8.33° C | 92% | 1008.3 hPa | 0 mm | - | - | - |
| 1778082145 | 8.33° C | 93% | 1008.2 hPa | 0 mm | - | - | - |
| 1778077943 | 8.33° C | 96% | 1007.6 hPa | 0.25 mm | - | - | - |
| 1778074947 | 8.89° C | 95% | 1007.6 hPa | 1.27 mm | - | - | - |
| 1778074342 | 8.89° C | 95% | 1007.5 hPa | 1.02 mm | - | - | - |
| 1778073739 | 8.89° C | 94% | 1007.6 hPa | 1.02 mm | - | - | - |
| 1778069536 | 8.89° C | 95% | 1007.1 hPa | 0.51 mm | - | - | - |
| 1778066538 | 8.33° C | 94% | 1007 hPa | 0.76 mm | - | - | - |
| 1778063542 | 7.78° C | 95% | 1006.8 hPa | 0.25 mm | - | - | - |
| 1778062357 | 7.78° C | 95% | 1006.6 hPa | 0 mm | - | - | - |
| 1778061752 | 7.78° C | 95% | 1006.6 hPa | 0 mm | - | - | - |
| 1778060546 | 7.22° C | 95% | 1006.5 hPa | 0.25 mm | - | - | - |
| 1778056341 | 7.22° C | 96% | 1006.2 hPa | 0.76 mm | - | - | - |
| 1778054552 | 7.22° C | 97% | 1006 hPa | 1.27 mm | - | - | - |
* Rain latest hour (hover to see other rain measurements)
** Current wind speed in m/s (hover to see current wind gust speed)